{"data":{"norad_id":57849,"epoch":"2026-05-24T21:18:03.282336Z","epoch_age_seconds":98433,"freshness":"FRESH","line1":"1 57849U 23141K   26144.88753799  .00103541  00000+0  33587-2 0  9998","line2":"2 57849  53.1612 290.2371 0000939  51.1475 308.9609 15.31155705151994","mean_motion":15.31155705,"eccentricity":9.39e-5,"inclination_deg":53.1612,"raan_deg":290.2371,"arg_perigee_deg":51.1475,"mean_anomaly_deg":308.9609,"bstar":0.0033587,"rev_number":15199,"period_min":94.046607755023,"perigee_km":471.71972897256,"apogee_km":473.00625287085,"semimajor_km":6850.4999909217,"source":"CELESTRAK","updated_at":"2026-05-25T13:38:18.414808Z"}}